^^
Datos históricos de la estación: Murcia-Puente Tocinos
 
Diario Informe para Noviembre 18, 2019 Unidades:  Métrico    Inglés   Ambas
Diario Semanal Mensual Anual Configurable
  Actual: Máximo: Mínimo: Media:
Temperatura: 15.7 °C 15.8 °C 10.0 °C 11.1 °C
Punto de rocio: 3.4 °C 10.4 °C 3.4 °C 8 °C
Humedad: 44% 94% 44% 82%
Velocidad viento: 22.5km/h 22.5km/h 0.0km/h 8.1km/h
Racha viento: 46.7km/h 46.7km/h - -
VientoWNW - - SSW
Presión: 1010.2 hPa 1010.3 hPa 1006.6 hPa -
Precipitación: 5.1 mm      
Historical Graphs
 
 
Tabla de datos para Noviembre 18, 2019
Hora Temperatura Punto de rocio Presión Viento Velocidad viento Racha viento Humedad Intensidad lluvia(por hora) Nubes
00:00 11.4 °C 6.1 °C 1008.2 hPa NW 3.2 km/h 4.8 km/h 70% 0.0 mm CLR
00:05 11.3 °C 6.0 °C 1008.2 hPa NW 3.2 km/h 3.2 km/h 70% 0.0 mm CLR
00:10 11.3 °C 6.0 °C 1008.3 hPa NW 3.2 km/h 3.2 km/h 70% 0.0 mm CLR
00:15 11.3 °C 6.2 °C 1008.3 hPa NW 1.6 km/h   71% 0.0 mm CLR
00:20 11.4 °C 6.3 °C 1008.3 hPa NW 1.6 km/h   71% 0.0 mm CLR
00:25 11.4 °C 6.6 °C 1008.1 hPa Calm   4.8 km/h 72% 0.0 mm CLR
00:30 11.4 °C 6.7 °C 1008.1 hPa Calm   6.4 km/h 73% 0.0 mm CLR
00:35 11.4 °C 6.7 °C 1008.1 hPa NW 3.2 km/h   73% 0.5 mm RA
00:40 11.3 °C 6.8 °C 1007.8 hPa NNW 3.2 km/h 8.0 km/h 74% 0.0 mm RA
00:45 11.2 °C 7.1 °C 1007.8 hPa ENE 3.2 km/h 8.0 km/h 76% 0.0 mm
00:50 11.1 °C 7.2 °C 1007.8 hPa ESE 3.2 km/h 8.0 km/h 77% 0.0 mm FEW
00:55 11.0 °C 7.3 °C 1007.4 hPa ESE 4.8 km/h 9.7 km/h 78% 0.0 mm FEW
01:00 10.9 °C 7.4 °C 1007.4 hPa ESE 4.8 km/h 8.0 km/h 79% 0.0 mm
01:05 10.8 °C 7.1 °C 1007.4 hPa East 3.2 km/h 4.8 km/h 78% 0.0 mm FEW
01:10 10.8 °C 7.3 °C 1007.6 hPa East 3.2 km/h 8.0 km/h 79% 0.0 mm FEW
01:15 10.7 °C 7.4 °C 1007.6 hPa North 3.2 km/h 11.3 km/h 80% 0.0 mm FEW
01:20 10.6 °C 7.5 °C 1007.6 hPa NNW 3.2 km/h 8.0 km/h 81% 0.0 mm FEW
01:25 10.5 °C 7.6 °C 1008.0 hPa NW 4.8 km/h 8.0 km/h 82% 0.0 mm FEW
01:30 10.5 °C 7.7 °C 1008.0 hPa NNW 4.8 km/h 8.0 km/h 83% 0.0 mm FEW
01:35 10.4 °C 7.6 °C 1008.0 hPa NNE 3.2 km/h 8.0 km/h 83% 0.0 mm FEW
01:40 10.4 °C 7.6 °C 1008.0 hPa NE 3.2 km/h 8.0 km/h 83% 0.0 mm FEW
01:45 10.3 °C 7.6 °C 1008.0 hPa NE 4.8 km/h 11.3 km/h 83% 0.0 mm FEW
01:50 10.4 °C 7.4 °C 1008.0 hPa NE 4.8 km/h 9.7 km/h 82% 0.0 mm CLR
01:55 10.5 °C 7.6 °C 1007.9 hPa NE 4.8 km/h 8.0 km/h 82% 0.0 mm CLR
02:00 10.6 °C 7.7 °C 1007.9 hPa NE 4.8 km/h 6.4 km/h 82% 0.3 mm RA
02:05 10.6 °C 7.7 °C 1007.9 hPa NE 3.2 km/h 4.8 km/h 82% 0.2 mm RA
02:10 10.6 °C 7.8 °C 1008.0 hPa ENE 3.2 km/h 8.0 km/h 83% 0.0 mm RA
02:15 10.4 °C 7.8 °C 1008.0 hPa ESE 3.2 km/h 8.0 km/h 84% 0.3 mm RA
02:20 10.4 °C 7.8 °C 1008.0 hPa SE 3.2 km/h 8.0 km/h 84% 0.0 mm
02:25 10.3 °C 8.1 °C 1007.5 hPa SE 3.2 km/h 9.7 km/h 86% 0.0 mm
02:30 10.3 °C 8.1 °C 1007.5 hPa SE 3.2 km/h 8.0 km/h 86% 0.0 mm
02:35 10.3 °C 8.2 °C 1007.5 hPa ESE 3.2 km/h 8.0 km/h 87% 0.0 mm
02:40 10.3 °C 8.2 °C 1007.3 hPa ESE 3.2 km/h 8.0 km/h 87% 0.0 mm
02:45 10.3 °C 8.2 °C 1007.3 hPa ESE 4.8 km/h 8.0 km/h 87% 0.0 mm
02:50 10.3 °C 8.2 °C 1007.3 hPa SE 4.8 km/h 8.0 km/h 87% 0.0 mm FEW
02:55 10.3 °C 8.2 °C 1007.4 hPa SSE 3.2 km/h 6.4 km/h 87% 0.0 mm FEW
03:00 10.3 °C 8.2 °C 1007.4 hPa SSW 3.2 km/h 9.7 km/h 87% 0.0 mm
03:05 10.3 °C 8.4 °C 1007.4 hPa West 4.8 km/h 9.7 km/h 88% 0.5 mm RA
03:10 10.2 °C 8.3 °C 1007.4 hPa WNW 4.8 km/h 8.0 km/h 88% 0.0 mm RA
03:15 10.1 °C 8.2 °C 1007.4 hPa NW 4.8 km/h 11.3 km/h 88% 0.0 mm
03:20 10.1 °C 8.4 °C 1007.4 hPa NW 4.8 km/h 11.3 km/h 89% 0.0 mm SCT
03:25 10.0 °C 8.3 °C 1007.2 hPa WNW 8.0 km/h 11.3 km/h 89% 0.0 mm SCT
03:30 10.0 °C 8.4 °C 1007.2 hPa WNW 8.0 km/h 11.3 km/h 90% 0.0 mm SCT
03:35 10.1 °C 8.6 °C 1007.2 hPa WNW 8.0 km/h 11.3 km/h 90% 0.0 mm RA
03:40 10.1 °C 8.6 °C 1007.3 hPa WNW 8.0 km/h 11.3 km/h 90% 0.5 mm RA
03:45 10.2 °C 8.8 °C 1007.3 hPa WNW 8.0 km/h 14.5 km/h 91% 0.0 mm RA
03:50 10.4 °C 9.0 °C 1007.3 hPa West 7.6 km/h 11.1 km/h 91% 1.8 mm RA
03:55 10.4 °C 9.0 °C 1007.6 hPa West 8.0 km/h 9.7 km/h 91% 1.0 mm RA
04:00 10.4 °C 9.2 °C 1007.6 hPa WSW 8.0 km/h 9.7 km/h 92% 0.0 mm RA
04:05 10.5 °C 9.3 °C 1007.6 hPa SSW 4.8 km/h 9.7 km/h 92% 0.3 mm RA
04:10 10.5 °C 9.3 °C 1007.6 hPa South 4.8 km/h 12.9 km/h 92% 0.3 mm RA
04:15 10.4 °C 9.2 °C 1007.6 hPa SSE 8.0 km/h 17.7 km/h 92% 0.2 mm RA
04:20 10.3 °C 9.1 °C 1007.6 hPa SSE 8.0 km/h 22.5 km/h 92% 0.2 mm RA
04:25 10.2 °C 9.1 °C 1007.5 hPa South 12.9 km/h 20.9 km/h 93% 0.3 mm RA
04:30 10.2 °C 9.1 °C 1007.5 hPa South 12.9 km/h 16.1 km/h 93% 0.3 mm RA
04:35 10.2 °C 9.1 °C 1007.5 hPa South 11.3 km/h 12.9 km/h 93% 0.0 mm
04:40 10.3 °C 9.2 °C 1007.5 hPa SSW 11.1 km/h 14.8 km/h 93% 2.1 mm RA
04:45 10.4 °C 9.5 °C 1007.5 hPa SSW 9.7 km/h 24.1 km/h 94% 0.5 mm RA
04:50 10.5 °C 9.6 °C 1007.5 hPa SSW 9.7 km/h 24.1 km/h 94% 0.5 mm RA
04:55 10.7 °C 9.8 °C 1007.5 hPa SSW 14.5 km/h 19.3 km/h 94% 0.3 mm RA
05:00 10.7 °C 9.8 °C 1007.5 hPa SSW 14.5 km/h 25.7 km/h 94% 0.0 mm
05:05 10.8 °C 9.9 °C 1007.5 hPa SSW 14.5 km/h 22.5 km/h 94% 0.0 mm
05:10 10.8 °C 9.9 °C 1007.4 hPa SSW 14.5 km/h 24.1 km/h 94% 0.2 mm RA
05:15 10.9 °C 9.9 °C 1007.4 hPa South 14.8 km/h 22.2 km/h 94% 1.3 mm RA
05:20 10.9 °C 9.8 °C 1007.4 hPa SW 14.5 km/h 24.1 km/h 93% 0.0 mm OVC
05:25 10.9 °C 9.8 °C 1007.2 hPa SW 14.5 km/h 19.3 km/h 93% 0.0 mm OVC
05:30 10.8 °C 9.6 °C 1007.2 hPa SW 14.5 km/h 24.1 km/h 92% 0.0 mm OVC
05:35 10.9 °C 9.7 °C 1007.2 hPa SW 12.9 km/h 17.7 km/h 92% 0.0 mm OVC
05:40 10.9 °C 9.5 °C 1007.2 hPa SW 12.9 km/h 14.5 km/h 91% 0.0 mm OVC
05:45 10.8 °C 9.4 °C 1007.2 hPa SSW 9.7 km/h 14.5 km/h 91% 0.0 mm OVC
05:50 10.8 °C 9.2 °C 1007.2 hPa SW 9.7 km/h 14.5 km/h 90% 0.0 mm OVC
05:55 10.8 °C 9.2 °C 1006.6 hPa SW 9.7 km/h 17.7 km/h 90% 0.0 mm OVC
06:00 10.8 °C 9.2 °C 1006.6 hPa SW 9.7 km/h 16.1 km/h 90% 0.0 mm
06:05 10.8 °C 9.1 °C 1006.6 hPa SW 9.7 km/h 16.1 km/h 89% 0.0 mm OVC
06:10 10.8 °C 8.9 °C 1007.3 hPa SE 10.0 km/h 13.0 km/h 88% 0.0 mm OVC
06:15 10.8 °C 8.9 °C 1007.3 hPa South 9.7 km/h 12.9 km/h 88% 0.0 mm OVC
06:20 10.8 °C 8.9 °C 1007.3 hPa WSW 10.0 km/h 13.0 km/h 88% 0.0 mm FEW
06:25 10.8 °C 8.9 °C 1006.9 hPa WSW 8.0 km/h 12.9 km/h 88% 0.0 mm FEW
06:30 10.7 °C 8.7 °C 1006.9 hPa West 8.0 km/h 9.7 km/h 87% 0.0 mm FEW
06:35 10.7 °C 8.8 °C 1006.9 hPa North 4.8 km/h 11.3 km/h 88% 0.0 mm FEW
06:40 10.6 °C 8.7 °C 1006.7 hPa West 4.8 km/h 14.5 km/h 88% 0.0 mm FEW
06:45 10.6 °C 8.7 °C 1006.7 hPa WSW 8.0 km/h 20.9 km/h 88% 0.0 mm FEW
06:50 10.7 °C 8.6 °C 1006.7 hPa WSW 8.4 km/h 7.4 km/h 87% 0.0 mm CLR
06:55 10.7 °C 8.6 °C 1006.9 hPa SW 9.7 km/h 16.1 km/h 87% 0.0 mm CLR
07:00 10.7 °C 8.5 °C 1006.9 hPa SSW 9.7 km/h 16.1 km/h 86% 0.0 mm CLR
07:05 10.8 °C 8.2 °C 1006.9 hPa SSW 11.3 km/h 16.1 km/h 84% 0.0 mm CLR
07:10 10.9 °C 8.1 °C 1007.8 hPa SSW 11.3 km/h 12.9 km/h 83% 0.0 mm CLR
07:15 10.9 °C 8.1 °C 1007.8 hPa SSW 8.0 km/h 12.9 km/h 83% 0.0 mm CLR
07:20 10.9 °C 8.1 °C 1007.8 hPa SSW 8.0 km/h 11.3 km/h 83% 0.0 mm CLR
07:25 10.9 °C 7.9 °C 1007.3 hPa SW 8.0 km/h 12.9 km/h 82% 0.0 mm CLR
07:30 10.9 °C 7.6 °C 1007.3 hPa SW 8.0 km/h 19.3 km/h 80% 0.0 mm CLR
07:35 11.2 °C 7.4 °C 1007.3 hPa WSW 9.7 km/h 20.9 km/h 78% 0.0 mm CLR
07:40 11.3 °C 7.2 °C 1007.6 hPa WSW 9.7 km/h 24.1 km/h 76% 0.0 mm CLR
07:45 11.4 °C 6.9 °C 1007.6 hPa West 11.3 km/h 25.7 km/h 74% 0.0 mm CLR
07:50 11.4 °C 6.7 °C 1007.6 hPa West 11.3 km/h 20.9 km/h 73% 0.0 mm CLR
07:55 11.5 °C 6.8 °C 1007.5 hPa WSW 12.9 km/h 22.5 km/h 73% 0.0 mm CLR
14:28 15.5 °C 3.6 °C 1010.3 hPa NW 19.8 km/h 24.5 km/h 45% 0.0 mm CLR
14:30 15.2 °C 10.4 °C 1010.0 hPa WSW 19.3 km/h 25.7 km/h 73% 0.0 mm CLR
14:35 15.7 °C 3.7 °C 1010.3 hPa WNW 16.1 km/h 35.4 km/h 45% 0.0 mm FEW
14:40 15.6 °C 3.7 °C 1010.2 hPa NW 16.1 km/h 27.4 km/h 45% 0.0 mm FEW
14:45 15.7 °C 3.8 °C 1010.2 hPa NW 16.1 km/h 37.0 km/h 45% 0.0 mm FEW
14:50 15.7 °C 3.4 °C 1010.2 hPa WNW 16.1 km/h 37.0 km/h 44% 0.0 mm FEW
14:55 15.8 °C 3.6 °C 1010.2 hPa WNW 22.5 km/h 46.7 km/h 44% 0.0 mm FEW
15:00 15.7 °C 3.4 °C 1010.2 hPa WNW 22.5 km/h 46.7 km/h 44% 0.0 mm FEW
Murcia-Puente Tocinos, España
Compliments of Weather Underground - 1.75 mb

La estación de MeteoMurcia.com, publica sus datos en los siguientes proyectos:

Weather Underground PWS IMURCIAP2 Meteoclimatic www.awekas.at

W3Counter
Web Analytics